Location: Middle Street
(51.7167°N, 0.0333°E)
Time: 20:06:06
(UTC+00:00)

Cosmos 1626 - Pass Details

Date: 20 January 2021
Orbit: 490 x 494 km, 82.5° (Epoch: 27 February)

Event Time Altitude Azimuth Distance (km) Brightness Sun altitude
Rises 18:12:46 0° 217° (SW) 2,569 6.5 -15.8°
Reaches altitude 10° 18:15:05 10° 229° (SW) 1,691 5.8 -16.1°
Maximum altitude 18:18:18 27° 290° (WNW) 973 4.2 -16.6°
Drops below altitude 10° 18:21:32 10° 350° (N) 1,701 4.8 -17.1°
Sets 18:23:53 0° 3° (N) 2,588 5.6 -17.5°
